Погода в Туркменабате

Погода в Туркменабате : погода сейчас, прогноз погоды и архив. Всё, что Вы хотите узнать о погоде в Туркменабате!

Хотите узнать прогноз погоды в Туркменабате? Тогда Вам сюда: Погода в Туркменабате

Поиск расширенной информации на нашем сайте:

Другие новости

Новости СМИ2

Главная страница сайта

Новости сайта

03.07.2017

Напоминаем, что на нашем специализированном сайте Метеоцентр.Азия вы можете получить высокодетализированные автоматические прогнозы погоды по пунктам России, СНГ и мира в авиационном формате (включающие направление и скорость ветра, видимость, явления погоды, количество и форму облачности, нижнюю и верхнюю границу облачности).


Погода в Туркменабате - сегодня

Время (UTC), дата Ветер
(°,м/с) 
Видим.   Явления Облачность Т
(°С)
Тd
(°С)
f(%) Тe
(°С)
Pmin
(гПа)
dP
(гПа)
Po
(мм)
O2
(г/м3)
Тmin Tmax R s Состояние
почвы
18 14.08.18 320 (СЗ) 10 км    ясно 
+30.1 +14.3 38 +38  1006.8  1.2  739  265    +37.5       
21 14.08.18 360 (С) 10 км    ясно 
+26.9 +11.1 37 +30  1007  -0.1  739  269           
00 15.08.18 340 (С) 10 км    ясно 
+24.3 +10.2 41 +26  1007.2  739  272           
03 15.08.18 //0 (С) //  н/о    н/о 
                 
06 15.08.18 020 (С) 10 км    ясно 
+33 -1.2 11 +33  1008.2  0.7  740  266  +23.7         
09 15.08.18 050 (СВ) 10 км    ясно 
+36.5 -0.2 10 +37  1007.4  -0.6  740  263           
12 15.08.18 020 (С) 10 км    ясно 
+37.5 +0.4 10 +38  1006  -1.3  739  262           
15 15.08.18 020 (С) 10 км    ясно 
+33.9 +7.7 20 +34  1006.4  0.2  739  264    +37.8       
18 15.08.18 340 (С) 10 км    ясно 
+31.5 +1.5 15 +32  1007.5  740  267    +37.8       
21 15.08.18 360 (С) 10 км    ясно 
+29.5 +0.9 16 +30  1007.4  -0.4  739  269           
00 16.08.18 360 (С) 10 км    ясно 
+25.3 +4 25 +25  1008.1  0.4  740  272           
03 16.08.18 360 (С) 10 км    5/0 средняя 
[Ac trans]
+26.7 +4.6 24 +27  1009  1.1  740  271           
06 16.08.18 020 (С) 10 км    3/0 средняя 
[Ac trans]
+34.9 +4.8 15 +35  1009.3  0.7  741  264  +24.8         
09 16.08.18 020 (С) 10 км    3/0 средняя 
[Ac trans]
+37.3 +7.6 16 +37  1008.8  -0.3  741  261           
12 16.08.18 050 (СВ) 10 км    1/0 средняя 
[Ac trans]
+37.9 +7.3 16 +38  1007.4  -1.2  740  261           
15 16.08.18 020 (С) 10 км    4/0 средняя 
[Ac trans]
+34.8 +10.7 23 +37  1007.3  -0.4  740  262    +38.3       
18 16.08.18 360 (С) 10 км    4/0 средняя 
[Ac trans]
+31.1 +10.6 28 +33  1008.2  0.7  740  266    +38.3       
21 16.08.18 020 (С) 10 км    4/0 средняя 
[Ac trans]
+28.3 +8.9 30 +28  1007.8  -0.6  740  269           
00 17.08.18 020 (С) 10 км    ясно 
+25.9 +8.1 32 +26  1007.8  -0.1  740  271           
03 17.08.18 050 (СВ) 10 км    ясно 
+25.1 +9.4 37 +26  1008.6  0.8  740  271           
06 17.08.18 050 (СВ) 10 км    ясно 
+32.4 +8.8 23 +32  1008.4  0.3  740  265  +24.1         
09 17.08.18 020 (С) 10 км    ясно 
+34.7 +3.2 14 +35  1007.8  -0.5  740  264           
12 17.08.18 020 (С) 10 км    ясно 
+35.6 +3.8 14 +36  1006  -1.7  739  263           
15 17.08.18 020 (С) 10 км    3/0 верхняя 
[Ci fib]
+31.7 +7.1 22 +32  1005.7  -0.6  738  265    +35.7       
18 17.08.18 020 (С) 10 км    ясно 
+27.3 +7.8 29 +27  1005.9  738  269    +35.7       
Время (UTC), дата Ветер
(°,м/с) 
Видим.   Явления Облачность Т
(°С)
Тd
(°С)
f(%) Тe
(°С)
Pmin
(гПа)
dP
(гПа)
Po
(мм)
O2
(г/м3)
Тmin Tmax R s Состояние
почвы

Для получения пояснительной информации подведите курсор к названию столбца.

ПОГОДА в Туркменабате - архив

Всё, что Вы хотите узнать о погоде в Туркменабате - удобно и подробно!

Выберите нужную дату (начиная с 1 января 2015* года) и нажмите кнопку "Найти".
Будут отображены архивные сводки погоды по пункту Туркменабат, начиная с указанной даты.


Отображать данные в формате CSV (для использования в таблицах Excel)


Внимание! Наш архив погоды предназначен исключительно для личного некоммерческого использования в познавательных целях. Если Вам необходимы официальные справки о состоянии погоды (для производственных, юридических, коммерческих и т.п. целей), обращайтесь в органы Росгидромета.

*Примечание: данная дата относится к архиву по метеостанциям СССР (Россия, СНГ, Балтия).
Архив по метеостанциям Зарубежной Европы и Азии (кроме Китая) хранится 10 дней, по другим регионам земного шара (Китай, Африка, Америка, Австралия, Океания) - 1 день.

Туркменабат - район местоположения метеостанции


Название, широта, долгота, высота метеостанции:
Туркменабат (Чарджоу) 39.1°ш. 63.6°д. 190 м над ур. моря [Туркменистан]

Дополнительная информация

В oтличие oт бoльшинства пoгoдных сайтoв мы публикуем пoдрoбную метеoинфoрмацию в детальнoм прoфессиoнальнoм фoрмате.

Характеристики температуры и влажнoсти вoздуха измеряются на высoте 2 м в тени вдали oт зданий и деревьев.
Скoрoсть ветра измеряется на высoте 10 м (на урoвне рoста челoвека скoрoсть ветра ниже в 1.5-2 раза). Если метеoстанция нахoдится в гoрoде или в лесу, тo скoрoсть ветра занижена на 2-4 м/с пo сравнению с oткрытым местoм. Скoрoсть ветра над акватoриями крупных рек и oзёр, а также на вершинах хoлмoв на 2-5 м/с выше, чем в oбычных услoвиях.
Атмoсфернoе давление в разных тoчках местнoсти мoжет значительнo oтличаться oт давления на метеoстанции, в зависимoсти oт услoвий рельефа (при пoдъёме на 10 м давление пoнижается примернo на 1 мм рт.ст.).